[[{"header":{"parameterUnit":"m.s-1","parameterCategory":1,"la1":30.2991,"la2":30.254,"lo1":-89.0895,"lo2":-89.0444,"dy":0.0017,"dx":0.0017,"nx":28,"ny":28,"refTime":"2025-04-24T09:00:00:Z","depth":0,"parameterNumber":2,"parameterNumberName":"U-component_of_WINDS"},"data":[0,0,0,0,0,0,0,0,0,0,0,0,0,0,0,0,0,0,0,0,0,0,0,0,0,0,0,0,0,0,0,0,0,0,0,0,0,0,0,0,0,0,0,0,0,0,0,0,0,0,0,0,0,0,0,0,0,0,-2.9397,-2.9398,0,-2.9443,-2.9443,-2.9444,-2.9402,-2.94,-2.9398,-2.9397,-2.9443,-2.9445,-2.9448,0,0,0,0,0,0,0,0,0,0,0,0,0,-2.9275,-2.9277,-2.9397,-2.9398,-2.9399,-2.9443,-2.9443,-2.9444,-2.9402,-2.94,-2.9398,-2.9396,-2.9442,-2.9445,-2.9448,0,0,0,0,0,0,0,0,0,0,0,0,0,-2.9325,-2.9278,-2.9397,-2.9383,-2.9382,-2.9442,-2.9443,-2.9444,-2.9402,-2.94,-2.9397,-2.9395,-2.9441,-2.9445,-2.9449,-2.9525,0,0,-2.9462,-2.9463,0,0,0,0,0,0,0,0,-2.9322,-2.9329,-2.9385,-2.9384,-2.9383,-2.9414,-2.9417,-2.9471,-2.9403,-2.9395,-2.9397,-2.9394,-2.9435,-2.944,-2.9454,-2.9527,-2.9529,-2.9462,-2.9464,-2.9466,-2.9467,0,0,0,0,0,0,0,-2.9318,-2.9327,-2.9415,-2.9385,-2.9385,-2.9374,-2.9379,-2.9427,-2.9429,-2.9395,-2.9392,-2.9398,-2.9434,-2.945,-2.9454,-2.953,-2.9462,-2.9466,-2.9468,-2.947,-2.9668,-2.9671,0,0,0,0,0,0,-2.9317,-2.9324,-2.9414,-2.9417,-2.9346,-2.9378,-2.9383,-2.9407,-2.9428,-2.9429,-2.94,-2.9396,-2.9444,-2.9449,-2.9456,-2.9546,-2.9466,-2.947,-2.9473,-2.9666,-2.9669,-2.9672,0,0,0,0,0,0,-2.9314,-2.9325,-2.9412,-2.937,-2.938,-2.9383,-2.941,-2.9409,-2.9424,-2.9432,-2.9432,-2.9416,-2.9442,-2.945,-2.9508,-2.9547,-2.9472,-2.9476,-2.9662,-2.9667,-2.967,-2.9728,0,0,0,0,0,0,-2.9311,-2.9324,-2.9354,-2.9371,-2.9382,-2.9464,-2.9412,-2.9412,-2.9432,-2.9426,-2.9446,-2.9447,-2.9441,-2.9502,-2.9512,-2.9551,-2.9479,-2.9659,-2.9664,-2.9669,-2.9722,-2.9733,-2.9743,0,0,0,0,0,-2.9307,-2.9368,-2.9355,-2.9366,-2.9419,-2.9466,-2.9473,-2.9464,-2.9435,-2.9464,-2.9469,-2.9446,-2.9541,-2.9509,-2.952,-2.9561,-2.9656,-2.9663,-2.9669,-2.9718,-2.9731,-2.9742,0,0,0,0,0,0,-2.9355,-2.937,-2.9356,-2.9425,-2.9445,-2.9459,-2.9496,-2.9479,-2.9507,-2.9501,-2.9489,-2.9494,-2.9556,-2.9564,-2.9527,-2.9635,-2.9594,-2.9603,-2.9628,-2.964,-2.965,-2.9647,-2.9483,0,0,0,0,0,-2.9374,-2.9411,-2.9422,-2.9482,-2.9492,-2.9493,-2.9513,-2.9504,-2.9524,-2.9533,-2.9542,-2.9562,-2.9596,-2.9619,-2.9651,-2.9724,-2.9727,-2.9757,-2.9768,-2.9776,-2.9783,-2.9822,-2.9835,-2.9692,-2.9692,-2.9692,0,0,-2.9413,-2.9426,-2.945,-2.9492,-2.9506,-2.9545,-2.95,-2.9543,-2.9571,-2.9539,-2.9594,-2.9602,-2.9624,-2.9689,-2.9719,-2.9698,-2.9824,-2.9784,-2.979,-2.9793,-2.983,-2.9843,-2.9855,-2.9697,-2.9696,-2.9695,0,0,-2.9503,-2.9517,-2.9568,-2.9583,-2.9606,-2.9605,-2.9618,-2.9635,-2.9639,-2.9694,-2.9671,-2.9704,-2.9764,-2.978,-2.9796,-2.9893,-2.9873,-2.9904,-2.9957,-2.9994,-3.0006,-3.0016,-3.0049,-3.0062,-2.9912,-2.9912,-2.9912,0,-2.9549,-2.9606,-2.9596,-2.9641,-2.966,-2.9633,-2.9684,-2.9699,-2.9731,-2.9745,-2.9721,-2.9795,-2.9808,-2.9877,-2.99,-2.9915,-2.9928,-2.9901,-3.0005,-3.0015,-3.0024,-3.0056,-3.0069,-2.9915,-2.9915,-2.9914,-2.9914,0,-2.9661,-2.9701,-2.9739,-2.9771,-2.9794,-2.9842,-2.9839,-2.9864,-2.9853,-2.9855,-2.9912,-2.9927,-2.9961,-2.9977,-2.9967,-3.0044,-3.0031,-3.0007,-2.9964,-3.0041,-3.0071,-3.0083,-2.992,-2.9919,-2.9918,-2.9917,0,0,-2.9783,-2.9808,-2.9822,-2.9836,-2.9858,-2.9889,-2.9936,-2.9969,-2.999,-3.0013,-3.0051,-3.0102,-3.008,-3.0098,-3.009,-3.0124,-3.0199,-3.0095,-3.0096,-3.0113,-3.0284,-3.0301,-3.0315,-3.0186,-3.0188,-3.019,-3.0281,0,-2.9873,-2.9954,-2.9946,-3.0022,-3.0059,-3.0034,-3.0074,-3.0093,-3.0096,-3.0127,-3.0131,-3.0167,-3.0135,-3.0146,-3.0178,-3.0183,-3.0232,-3.0176,-3.0221,-3.0222,-3.0215,-3.0331,-3.035,-3.0435,-3.0293,-3.0295,-3.0297,0,-2.999,-3.0017,-3.0097,-3.0113,-3.0128,-3.0165,-3.0194,-3.0225,-3.0245,-3.0245,-3.0266,-3.0252,-3.0299,-3.0256,-3.032,-3.0282,-3.03,-3.0305,-3.0308,-3.0311,-3.0263,-3.0336,-3.0462,-3.0475,-3.0315,-3.0314,-3.0312,0,-3.007,-3.0126,-3.0181,-3.0193,-3.0214,-3.024,-3.025,-3.0268,-3.0289,-3.0315,-3.0328,-3.0359,-3.0376,-3.0401,-3.0396,-3.0366,-3.0461,-3.0418,-3.0461,-3.0461,-3.0482,-3.048,-3.0611,-3.0495,-3.0495,-3.0494,-3.0494,0,-3.0171,-3.0221,-3.0217,-3.025,-3.0305,-3.0296,-3.035,-3.0357,-3.0373,-3.0408,-3.0388,-3.0421,-3.0413,-3.0445,-3.0442,-3.0495,-3.0503,-3.0504,-3.0502,-3.0505,-3.0505,-3.0516,-3.0509,-3.0498,-3.0497,-3.0496,-3.0496,0,-3.0269,-3.0269,-3.0327,-3.0342,-3.0347,-3.0387,-3.0399,-3.0431,-3.0433,-3.0477,-3.0486,-3.0489,-3.0526,-3.0524,-3.0566,-3.0564,-3.0628,-3.062,-3.0622,-3.062,-3.0663,-3.0658,-3.0804,-3.0823,-3.0696,-3.0697,-3.0698,0,-3.0334,-3.0371,-3.0391,-3.0412,-3.0424,-3.0459,-3.048,-3.0472,-3.0495,-3.052,-3.0549,-3.0584,-3.0612,-3.0672,-3.0678,-3.071,-3.0702,-3.0751,-3.0706,-3.0708,-3.0701,-3.0699,-3.0702,-3.0759,-3.0761,-3.0762,-3.0763,0,-3.0448,-3.0446,-3.0476,-3.0507,-3.0532,-3.0556,-3.0578,-3.0597,-3.0591,-3.0618,-3.0655,-3.0677,-3.0719,-3.0754,-3.0785,-3.0795,-3.0778,-3.0777,-3.0788,-3.0791,-3.079,-3.079,-3.0644,-3.0773,-3.0772,-3.0771,-3.0771,-3.077,-3.0531,-3.0563,-3.0581,-3.0616,-3.0631,-3.0652,-3.0682,-3.0688,-3.0719,-3.0753,-3.0747,-3.0789,-3.0808,-3.0847,-3.086,-3.0892,-3.0875,-3.0892,-3.0896,-3.09,-3.0904,-3.0786,-3.0898,-3.0898,-3.0897,-3.0897,-3.0897,0,-3.0643,-3.0654,-3.0686,-3.0717,-3.0744,-3.0726,-3.0749,-3.0773,-3.081,-3.0829,-3.0856,-3.0899,-3.0933,-3.0942,-3.0974,-3.0999,-3.0992,-3.1008,-3.1005,-3.1008,-3.0919,-3.0905,-3.1013,-3.1013,-3.1013,-3.1012,-3.1012,-3.1012,-3.0705,-3.0758,-3.0758,-3.0818,-3.0828,-3.0869,-3.0883,-3.0902,-3.0917,-3.0966,-3.0994,-3.0999,-3.1014,-3.1048,-3.1078,-3.1079,-3.1092,-3.1111,-3.1109,-3.1026,-3.1014,-3.1003,-3.099,-3.1114,-3.1114,-3.1195,-3.1196,-3.1196]},{"header":{"parameterUnit":"m.s-1","parameterCategory":1,"la1":30.2991,"la2":30.254,"lo1":-89.0895,"lo2":-89.0444,"dy":0.0017,"dx":0.0017,"nx":28,"ny":28,"refTime":"2025-04-24T09:00:00:Z","depth":0,"parameterNumber":3,"parameterNumberName":"V-component_of_WINDS"},"data":[0,0,0,0,0,0,0,0,0,0,0,0,0,0,0,0,0,0,0,0,0,0,0,0,0,0,0,0,0,0,0,0,0,0,0,0,0,0,0,0,0,0,0,0,0,0,0,0,0,0,0,0,0,0,0,0,0,0,3.0075,3.0075,0,3.009,3.009,3.009,3.0051,3.005,3.0049,3.0048,3.0062,3.0063,3.0065,0,0,0,0,0,0,0,0,0,0,0,0,0,3.0012,3.0013,3.0075,3.0075,3.0075,3.009,3.009,3.009,3.0052,3.005,3.0049,3.0047,3.0061,3.0063,3.0065,0,0,0,0,0,0,0,0,0,0,0,0,0,3.0034,3.0014,3.0075,3.0058,3.0056,3.009,3.009,3.009,3.0052,3.005,3.0048,3.0047,3.0061,3.0063,3.0065,3.0115,0,0,3.0072,3.0073,0,0,0,0,0,0,0,0,3.0033,3.0037,3.006,3.0059,3.0057,3.0067,3.0073,3.0099,3.0052,3.0054,3.0048,3.0046,3.0065,3.0067,3.0074,3.0116,3.0117,3.0072,3.0074,3.0075,3.0075,0,0,0,0,0,0,0,3.0032,3.0036,3.0081,3.006,3.0059,3.0049,3.005,3.0078,3.0069,3.0053,3.0051,3.0053,3.0064,3.0071,3.0074,3.0117,3.0072,3.0074,3.0076,3.0077,3.0202,3.0204,0,0,0,0,0,0,3.0032,3.0035,3.008,3.0081,3.0041,3.0052,3.0053,3.0066,3.0069,3.0068,3.0055,3.0051,3.0069,3.0071,3.0074,3.0134,3.0075,3.0077,3.0078,3.02,3.0203,3.0205,0,0,0,0,0,0,3.0031,3.0037,3.008,3.0057,3.0062,3.0055,3.0069,3.0067,3.0074,3.007,3.0068,3.0064,3.0067,3.0071,3.0106,3.0133,3.0078,3.008,3.0198,3.0201,3.0204,3.0253,0,0,0,0,0,0,3.003,3.0037,3.0056,3.0058,3.0063,3.0111,3.0071,3.0069,3.0079,3.0074,3.0078,3.0077,3.0066,3.0103,3.0108,3.0136,3.0082,3.0196,3.02,3.0203,3.0249,3.0257,3.0264,0,0,0,0,0,3.0027,3.0068,3.0057,3.0062,3.0087,3.0113,3.0116,3.0103,3.0081,3.01,3.0097,3.0077,3.013,3.0107,3.0112,3.0141,3.0194,3.0198,3.0203,3.0245,3.0255,3.0264,0,0,0,0,0,0,3.0068,3.0068,3.0055,3.0098,3.0106,3.0106,3.013,3.0114,3.0128,3.0124,3.0107,3.0108,3.0146,3.0147,3.0121,3.019,3.0158,3.0164,3.0188,3.0198,3.0206,3.0204,3.0083,0,0,0,0,0,3.0083,3.0104,3.0103,3.014,3.0145,3.0137,3.0148,3.0138,3.0145,3.0148,3.0147,3.0155,3.0173,3.0186,3.0202,3.0249,3.0249,3.0271,3.0279,3.0286,3.0291,3.0316,3.0326,3.022,3.022,3.022,0,0,3.0112,3.0114,3.0129,3.0149,3.0154,3.0176,3.014,3.0165,3.0182,3.0151,3.0185,3.0185,3.0192,3.0234,3.0252,3.0235,3.0321,3.0291,3.0297,3.0298,3.0322,3.0332,3.0341,3.0223,3.0222,3.0222,0,0,3.0176,3.018,3.0213,3.0219,3.0227,3.0222,3.023,3.0233,3.0232,3.0266,3.0243,3.0263,3.0295,3.0301,3.0308,3.0378,3.0359,3.0383,3.0424,3.0449,3.0458,3.0465,3.049,3.0499,3.0389,3.0389,3.0389,0,3.0211,3.0245,3.0231,3.0259,3.0268,3.0243,3.0276,3.0282,3.0295,3.0302,3.0284,3.0324,3.0327,3.037,3.0387,3.0394,3.0403,3.0383,3.0458,3.0465,3.0471,3.0495,3.0505,3.0392,3.0391,3.0391,3.0391,0,3.0288,3.0312,3.0337,3.0351,3.0364,3.0394,3.0385,3.0399,3.0388,3.0385,3.042,3.0423,3.044,3.0449,3.0438,3.0491,3.0481,3.046,3.0428,3.0485,3.0507,3.0516,3.0396,3.0395,3.0394,3.0393,0,0,3.0378,3.0386,3.0395,3.0402,3.041,3.0428,3.0457,3.0474,3.0487,3.0497,3.0521,3.055,3.0531,3.054,3.0529,3.0552,3.0607,3.0528,3.0528,3.0543,3.0666,3.0681,3.0692,3.0595,3.0597,3.0598,3.0666,0,3.0442,3.0493,3.0482,3.0532,3.0554,3.053,3.0556,3.0564,3.0562,3.058,3.0577,3.0598,3.0572,3.0577,3.0598,3.0596,3.0631,3.0591,3.0617,3.0618,3.0616,3.0704,3.072,3.0783,3.0674,3.0675,3.0676,0,3.0524,3.0538,3.0591,3.0596,3.0605,3.0628,3.0644,3.0662,3.067,3.0667,3.0678,3.0663,3.0692,3.066,3.0699,3.0672,3.0682,3.0683,3.0685,3.0687,3.0651,3.0708,3.0803,3.0813,3.069,3.0689,3.0688,0,3.0585,3.0617,3.0653,3.0659,3.0666,3.0683,3.0687,3.0694,3.0705,3.0719,3.0727,3.0744,3.0753,3.0766,3.0757,3.0734,3.0799,3.0765,3.0797,3.0797,3.0811,3.0811,3.091,3.0818,3.0818,3.0818,3.0818,0,3.0658,3.0691,3.0681,3.0703,3.0739,3.0727,3.0763,3.0764,3.077,3.0792,3.0772,3.0793,3.078,3.0799,3.0792,3.0827,3.0831,3.0829,3.0827,3.0831,3.0832,3.0838,3.0833,3.082,3.082,3.0819,3.0819,0,3.0732,3.0727,3.0764,3.0769,3.077,3.0797,3.08,3.0821,3.0818,3.0846,3.0852,3.0847,3.0869,3.0861,3.0885,3.088,3.0924,3.0916,3.0922,3.092,3.0952,3.095,3.1059,3.1073,3.0972,3.0973,3.0974,0,3.078,3.0804,3.0812,3.0825,3.0831,3.0853,3.0865,3.0854,3.0867,3.088,3.0899,3.0919,3.0935,3.0972,3.0971,3.0989,3.0981,3.1018,3.0984,3.0987,3.0982,3.0981,3.0984,3.1025,3.1026,3.1027,3.1028,0,3.0864,3.086,3.0879,3.0897,3.0913,3.0926,3.0938,3.095,3.094,3.0956,3.0979,3.0991,3.1016,3.1037,3.1054,3.1057,3.1041,3.1039,3.1047,3.1052,3.1054,3.1054,3.0941,3.1036,3.1036,3.1035,3.1034,3.1034,3.0926,3.0948,3.0957,3.0978,3.0986,3.0998,3.1018,3.1018,3.1037,3.1057,3.1049,3.1076,3.1084,3.1105,3.1111,3.1132,3.1118,3.113,3.1133,3.1136,3.1141,3.1051,3.1135,3.1135,3.1134,3.1134,3.1134,0,3.101,3.1015,3.1035,3.1053,3.107,3.1054,3.1067,3.1082,3.1106,3.1116,3.1132,3.1159,3.118,3.1181,3.12,3.1216,3.121,3.1222,3.1221,3.1222,3.1152,3.1143,3.1227,3.1227,3.1227,3.1227,3.1227,3.1227,3.1056,3.1092,3.1089,3.1129,3.1134,3.116,3.1169,3.118,3.1188,3.1219,3.1236,3.1237,3.1243,3.1263,3.1281,3.1281,3.1289,3.1304,3.1301,3.1236,3.1227,3.1218,3.1209,3.1306,3.1306,3.1369,3.137,3.137]}]]